Time,TemperatureF,DewpointF,PressureIn,WindDirection,WindDirectionDegrees,WindSpeedMPH,WindSpeedGustMPH,Humidity,HourlyPrecipIn,Conditions,Clouds,dailyrainin,SolarRadiationWatts/m^2,SoftwareType,DateUTC
2013-05-17 19:44:00,73.7,45.1,30.09,SW,225,0.0,0.0,36,0.00,,,0.00,35,Wunderground v.1.15,2013-05-17 23:44:00,
2013-05-17 19:46:00,73.3,46.2,30.09,SW,225,0.0,0.0,38,0.00,,,0.00,35,Wunderground v.1.15,2013-05-17 23:46:00,
2013-05-17 19:48:00,73.0,45.9,30.09,SW,225,0.0,0.0,38,0.00,,,0.00,35,Wunderground v.1.15,2013-05-17 23:48:00,
2013-05-17 19:54:00,72.0,47.0,30.09,SW,225,0.0,0.0,41,0.00,,,0.00,35,Wunderground v.1.15,2013-05-17 23:54:00,
2013-05-17 20:00:00,71.0,47.4,30.10,SW,225,0.0,0.0,43,0.00,,,0.00,32,Wunderground v.1.15,2013-05-18 00:00:00,
2013-05-17 20:06:00,70.2,46.6,30.10,SW,225,0.0,0.0,43,0.00,,,0.00,28,Wunderground v.1.15,2013-05-18 00:06:00,
2013-05-17 20:12:00,69.1,47.4,30.10,SW,225,0.0,0.0,46,0.00,,,0.00,23,Wunderground v.1.15,2013-05-18 00:12:00,
2013-05-17 20:18:00,68.1,48.2,30.10,SW,225,0.0,0.0,49,0.00,,,0.00,18,Wunderground v.1.15,2013-05-18 00:18:00,
2013-05-17 20:24:00,67.3,48.5,30.10,SW,225,0.0,0.0,51,0.00,,,0.00,7,Wunderground v.1.15,2013-05-18 00:24:00,
2013-05-17 20:28:00,66.8,47.6,30.10,SW,225,0.0,0.0,50,0.00,,,0.00,5,Wunderground v.1.15,2013-05-18 00:28:00,
2013-05-17 20:34:00,66.3,47.6,30.10,SW,225,0.0,3.0,51,0.00,,,0.00,0,Wunderground v.1.15,2013-05-18 00:34:00,
2013-05-17 20:40:00,65.9,46.7,30.11,WSW,255,0.0,3.0,50,0.00,,,0.00,0,Wunderground v.1.15,2013-05-18 00:40:00,
2013-05-17 20:46:00,65.4,47.8,30.11,WSW,255,0.0,3.0,53,0.00,,,0.00,0,Wunderground v.1.15,2013-05-18 00:46:00,
2013-05-17 20:52:00,64.2,48.2,30.11,WSW,255,0.0,3.0,56,0.00,,,0.00,0,Wunderground v.1.15,2013-05-18 00:52:00,
2013-05-17 20:58:00,64.2,46.7,30.12,NE,53,0.0,4.0,53,0.00,,,0.00,0,Wunderground v.1.15,2013-05-18 00:58:00,
2013-05-17 21:04:00,65.4,46.3,30.12,ENE,61,1.0,3.0,50,0.00,,,0.00,0,Wunderground v.1.15,2013-05-18 01:04:00,
2013-05-17 21:10:00,66.4,46.1,30.13,ENE,69,1.0,3.0,48,0.00,,,0.00,0,Wunderground v.1.15,2013-05-18 01:10:00,
2013-05-17 21:16:00,67.0,46.1,30.13,ENE,74,2.0,5.0,47,0.00,,,0.00,0,Wunderground v.1.15,2013-05-18 01:16:00,
2013-05-17 21:22:00,67.6,46.1,30.14,ENE,69,2.0,4.0,46,0.00,,,0.00,0,Wunderground v.1.15,2013-05-18 01:22:00,
2013-05-17 21:28:00,67.9,44.6,30.14,East,94,3.0,4.0,43,0.00,,,0.00,0,Wunderground v.1.15,2013-05-18 01:28:00,
2013-05-17 21:34:00,67.9,44.6,30.15,ENE,74,3.0,7.0,43,0.00,,,0.00,0,Wunderground v.1.15,2013-05-18 01:34:00,
2013-05-17 21:40:00,67.8,43.9,30.15,East,79,3.0,3.0,42,0.00,,,0.00,0,Wunderground v.1.15,2013-05-18 01:40:00,
2013-05-17 21:46:00,67.5,44.2,30.15,ENE,73,1.0,3.0,43,0.00,,,0.00,0,Wunderground v.1.15,2013-05-18 01:46:00,
2013-05-17 21:52:00,67.1,43.8,30.16,ENE,77,1.0,3.0,43,0.00,,,0.00,0,Wunderground v.1.15,2013-05-18 01:52:00,
2013-05-17 21:58:00,66.8,43.6,30.16,ENE,57,1.0,3.0,43,0.00,,,0.00,0,Wunderground v.1.15,2013-05-18 01:58:00,
2013-05-17 22:04:00,66.5,43.3,30.16,NE,36,1.0,3.0,43,0.00,,,0.00,0,Wunderground v.1.15,2013-05-18 02:04:00,
2013-05-17 22:10:00,66.2,43.6,30.16,East,79,1.0,3.0,44,0.00,,,0.00,0,Wunderground v.1.15,2013-05-18 02:10:00,
2013-05-17 22:16:00,65.9,43.4,30.16,NE,47,1.0,3.0,44,0.00,,,0.00,0,Wunderground v.1.15,2013-05-18 02:16:00,
2013-05-17 22:22:00,65.7,43.2,30.16,NNE,19,1.0,3.0,44,0.00,,,0.00,0,Wunderground v.1.15,2013-05-18 02:22:00,
2013-05-17 22:28:00,65.4,43.5,30.17,East,98,1.0,3.0,45,0.00,,,0.00,0,Wunderground v.1.15,2013-05-18 02:28:00,
2013-05-17 22:34:00,64.9,43.6,30.17,ENE,69,0.0,3.0,46,0.00,,,0.00,0,Wunderground v.1.15,2013-05-18 02:34:00,
2013-05-17 22:40:00,64.5,43.8,30.17,NE,49,0.0,3.0,47,0.00,,,0.00,0,Wunderground v.1.15,2013-05-18 02:40:00,
2013-05-17 22:46:00,64.0,43.4,30.17,NE,45,1.0,3.0,47,0.00,,,0.00,0,Wunderground v.1.15,2013-05-18 02:46:00,
2013-05-17 22:52:00,63.8,44.3,30.17,North,11,1.0,3.0,49,0.00,,,0.00,0,Wunderground v.1.15,2013-05-18 02:52:00,
2013-05-17 22:58:00,63.2,43.7,30.18,North,11,1.0,3.0,49,0.00,,,0.00,0,Wunderground v.1.15,2013-05-18 02:58:00,
2013-05-17 23:04:00,62.6,43.7,30.18,North,11,0.0,3.0,50,0.00,,,0.00,0,Wunderground v.1.15,2013-05-18 03:04:00,
2013-05-17 23:10:00,62.2,43.8,30.18,NE,45,0.0,3.0,51,0.00,,,0.00,0,Wunderground v.1.15,2013-05-18 03:10:00,
2013-05-17 23:16:00,61.8,44.5,30.18,NE,45,0.0,3.0,53,0.00,,,0.00,0,Wunderground v.1.15,2013-05-18 03:16:00,